Location: Deer Path Park
(40.5570°N, 74.8450°W)
Time: 12:31:12
(UTC-05:00)

Iridium 49 - Visible Passes

Search period start: 22 February 2017 00:00
Search period end: 04 March 2017 00:00
Orbit: 776 x 779 km, 86.4° (Epoch: 21 February)

Date Brightness Start Highest point End Pass type
(mag) Time Alt. Az. Time Alt. Az. Time Alt. Az.
01 Mar 8.8 21:26:01 10° NNW 21:26:09 11° NNW 21:26:09 11° NNW visible
02 Mar 8.4 20:52:22 10° N 20:53:05 14° N 20:53:05 14° N visible
03 Mar 8.1 20:19:01 10° N 20:20:04 16° NNE 20:20:04 16° NNE visible
